Wind_Speed
13 13 13 10 7 6 6 4 2 7 9 9 10 11 11 13 14 14 14 14 15 15 15 15 15 15 14 14 14 13 12 12 11 10 9 8 8 7 6 5 4 3
13 13 12 10 7 4 4 4 1 5 8 8 8 9 10 11 13 13 14 14 15 15 15 16 16 16 15 15 14 14 14 14 14 13 13 12 11 11 10 9 8 8
13 13 12 10 9 6 4 5 5 2 5 6 5 6 6 8 9 10 11 12 12 13 13 13 14 14 14 13 13 13 13 13 13 13 13 13 12 12 12 11 11 11
14 13 12 12 10 9 8 8 8 7 5 5 4 3 3 4 5 5 6 6 7 8 9 9 10 10 10 11 11 11 11 11 11 11 11 11 11 11 12 12 12 12
17 15 15 15 14 12 12 11 11 11 10 8 7 5 5 3 2 1 1 2 3 4 4 5 5 6 7 7 8 8 9 9 9 9 9 9 10 11 11 12 12 12
20 20 19 19 17 16 16 14 14 14 13 13 11 9 8 7 7 6 5 4 3 3 3 3 4 5 5 5 5 6 7 8 8 9 9 10 10 10 11 12 12 12
21 22 22 20 19 18 18 17 16 16 16 16 15 14 12 10 10 10 10 9 9 8 7 7 6 6 8 8 8 8 8 8 9 10 10 11 12 12 12 13 13 13
21 22 22 20 19 19 19 18 17 17 19 20 19 19 17 14 13 13 13 13 14 13 12 11 9 9 9 9 10 11 11 11 12 12 12 11 12 14 14 15 15 14
22 23 22 21 20 20 19 20 20 19 21 23 23 22 20 17 16 16 16 16 16 16 16 15 13 11 10 10 10 11 13 14 14 15 15 14 14 14 15 15 16 16
22 22 22 22 22 22 22 23 24 23 23 25 26 25 23 21 20 20 20 20 19 19 19 18 17 15 14 13 13 12 12 13 14 15 17 17 16 16 16 15 16 18
22 24 25 26 26 25 25 25 25 24 24 24 24 25 25 24 23 23 23 24 26 27 27 24 22 20 19 16 14 13 11 10 11 13 16 18 18 18 18 18 18 19
22 25 28 29 29 27 26 26 25 24 23 22 22 22 23 23 23 23 24 27 30 35 35 32 28 25 23 19 15 14 12 11 12 13 14 16 17 19 20 21 20 20
25 28 30 31 30 29 27 25 24 24 23 22 22 21 21 22 22 23 25 29 32 35 35 30 25 24 24 21 17 14 13 14 15 14 14 15 16 19 21 21 22 21
31 31 32 31 28 26 26 25 23 24 25 24 23 22 22 23 25 26 28 30 31 32 32 28 23 20 21 22 21 18 16 16 17 17 16 16 17 19 21 22 23 23
28 28 29 27 22 22 26 30 28 27 27 24 21 21 22 24 26 27 27 29 29 28 27 25 21 18 18 21 22 22 21 21 21 21 21 21 21 22 23 23 24 25
21 22 24 25 21 19 24 28 27 25 24 22 21 22 23 23 23 22 22 23 24 22 20 18 18 17 17 18 20 21 22 24 25 25 26 27 27 26 25 25 25 26
18 19 20 21 20 18 19 21 20 20 21 22 23 23 23 22 21 20 21 22 21 20 20 19 20 20 19 20 21 23 25 26 25 26 28 30 29 28 27 28 28 27
18 19 20 21 20 19 20 21 20 19 19 20 21 22 22 22 22 23 23 23 23 23 23 23 22 22 23 23 24 26 27 28 27 27 29 29 29 29 30 31 31 30
19 21 22 22 21 21 22 22 20 19 20 20 20 21 22 23 23 24 25 25 27 27 27 26 25 25 24 25 26 27 28 29 29 29 29 29 29 30 32 32 32 33
23 24 24 24 24 23 22 21 20 20 20 20 21 22 23 24 25 26 26 27 28 28 28 27 26 26 25 25 26 27 28 29 31 31 30 30 31 32 32 32 33 34
25 25 25 24 23 21 19 18 18 18 19 19 20 20 21 22 23 24 25 25 25 26 27 27 27 27 26 26 26 27 27 28 30 30 30 31 32 34 33 33 33 34
23 23 22 21 19 17 16 17 17 18 19 19 20 20 20 20 21 22 23 24 24 24 25 26 26 27 27 27 27 27 27 27 28 29 30 31 33 35 34 33 34 35
22 21 21 20 19 18 17 17 18 18 19 20 21 21 22 22 22 23 24 25 24 23 24 25 27 28 28 28 28 28 28 28 28 29 29 31 33 34 34 35 36 36
23 22 23 23 22 21 21 21 20 19 19 20 21 21 22 22 23 25 25 25 24 23 23 24 26 26 26 25 25 26 26 27 28 28 28 30 33 34 35 38 38 38
24 25 25 24 24 25 25 24 23 21 20 20 21 22 22 23 25 27 27 26 25 24 24 25 25 26 25 24 24 24 25 25 27 28 29 30 33 35 37 38 39 39
26 25 25 25 26 27 28 27 26 23 22 21 22 23 24 25 28 29 29 28 27 26 27 27 26 27 27 26 27 27 27 27 27 28 30 32 34 36 38 38 39 38
Wind_Direction
262 276 288 302 320 339 341 339 92 111 103 99 94 86 82 82 81 81 80 78 78 76 75 75 74 74 72 71 72 72 73 74 73 73 71 69 66 63 60 56 47 33
246 261 275 287 294 305 317 312 291 123 119 115 105 95 89 83 78 78 78 77 76 74 72 72 71 72 71 70 69 68 68 69 69 68 66 63 61 59 57 54 50 44
229 251 264 273 276 271 271 281 275 197 144 135 119 106 102 93 83 76 74 74 74 72 70 68 67 66 65 65 64 62 61 61 61 62 61 59 56 54 52 49 48 45
211 233 250 257 258 258 257 261 264 255 217 187 166 152 146 117 103 87 73 66 65 67 65 63 61 57 54 52 49 47 46 46 46 46 47 46 42 39 37 33 32 32
207 216 236 242 242 249 255 255 259 263 254 239 221 207 214 212 196 183 120 70 39 33 40 45 43 39 37 34 29 24 19 18 19 20 20 21 21 17 15 14 13 13
212 214 223 231 236 245 255 258 262 268 268 260 250 241 240 235 232 241 244 244 266 289 304 325 338 348 350 349 352 351 349 349 347 348 350 350 351 351 351 351 352 354
217 218 218 224 234 243 252 257 262 269 270 269 268 268 265 253 240 237 239 245 253 259 269 282 293 306 311 313 314 312 313 317 317 320 323 324 325 327 329 330 333 337
216 219 218 224 234 240 249 255 258 262 265 265 267 269 270 267 261 252 247 246 248 250 253 259 264 272 282 291 298 301 301 300 300 302 304 306 308 310 313 315 318 322
215 219 222 227 234 239 246 252 254 254 257 262 265 268 271 273 275 277 273 263 254 252 253 253 251 250 256 266 277 287 294 294 292 292 294 298 300 302 306 310 312 314
222 224 227 228 231 236 241 248 252 252 254 261 266 271 276 278 280 283 284 280 275 275 273 263 252 250 256 261 264 273 285 287 285 286 289 293 297 299 301 303 305 307
237 237 238 236 234 236 240 245 249 250 254 262 269 275 279 282 283 283 284 284 284 286 283 274 265 264 264 263 263 269 275 279 283 287 290 292 294 295 295 297 299 300
250 247 247 246 242 238 239 243 247 250 254 261 267 273 277 281 284 283 281 283 286 287 280 270 266 268 264 256 259 270 273 279 286 289 291 294 293 290 289 291 294 296
253 250 246 243 242 241 241 242 244 249 253 255 258 263 269 274 277 278 280 285 289 289 281 271 266 269 263 253 254 269 280 287 291 290 292 296 293 288 286 286 288 289
252 252 245 236 231 234 241 245 247 250 250 249 253 260 265 269 272 275 279 284 286 287 287 285 282 277 269 259 254 262 276 289 295 293 293 293 290 288 286 286 286 285
251 254 253 247 238 235 242 248 251 251 248 245 250 259 265 271 275 278 280 281 282 285 288 287 282 276 270 262 258 262 271 283 290 291 291 290 288 288 288 290 291 289
258 262 264 267 267 259 250 248 247 247 249 252 253 257 261 267 271 274 276 277 280 284 286 283 280 277 269 262 265 270 274 278 284 288 288 287 286 288 290 291 291 289
272 276 273 271 274 272 266 261 259 258 262 265 265 264 265 267 267 268 271 274 276 279 281 281 281 281 277 273 276 280 280 280 281 282 282 282 284 287 288 287 286 284
276 276 272 270 270 271 273 275 275 272 270 272 274 274 273 273 271 270 272 275 278 279 282 284 284 284 284 282 281 281 281 279 276 274 275 278 282 283 282 283 286 287
266 265 268 271 272 273 274 276 275 272 270 273 274 274 273 273 273 275 278 278 279 280 282 284 285 285 283 280 278 276 275 274 273 272 272 275 278 279 280 283 286 287
259 263 266 269 270 271 272 272 271 271 272 272 271 271 271 271 271 274 278 279 280 281 281 282 283 282 280 277 275 273 270 269 269 270 270 272 275 276 278 280 282 285
257 261 264 266 267 267 267 267 268 272 274 274 273 272 272 272 272 273 274 277 278 279 280 282 282 280 278 275 272 271 269 266 266 268 269 271 273 273 274 275 279 284
254 255 258 259 259 260 264 268 271 275 277 277 278 277 276 276 276 276 276 276 277 278 279 280 279 277 276 273 270 268 266 265 264 265 266 268 270 272 273 272 275 281
251 251 250 250 251 257 264 269 273 276 278 279 279 279 279 279 277 277 277 277 278 279 279 278 276 275 275 274 273 271 268 267 266 265 265 267 270 273 274 272 273 276
255 256 253 251 252 255 260 265 270 276 280 281 280 279 279 279 277 276 276 277 278 279 277 275 275 274 275 275 275 275 274 273 272 268 265 266 268 270 271 271 272 274
258 261 262 261 259 259 260 264 269 276 281 282 280 279 279 279 277 276 276 277 278 278 276 276 276 276 277 278 278 278 278 278 276 271 266 264 265 266 267 268 271 273
256 261 264 267 269 268 267 266 267 272 278 280 279 278 278 278 279 279 280 281 280 280 280 280 280 280 280 281 281 280 279 277 275 272 267 264 264 265 266 268 271 273
Height
3126 3126 3127 3127 3128 3129 3130 3130 3131 3130 3130 3130 3130 3130 3130 3130 3131 3131 3131 3131 3132 3132 3132 3132 3132 3132 3133 3133 3133 3133 3134 3134 3134 3134 3134 3134 3135 3135 3135 3135 3135 3135
3125 3125 3125 3126 3127 3129 3129 3130 3131 3131 3131 3131 3131 3131 3131 3132 3132 3132 3133 3133 3133 3133 3133 3133 3134 3134 3134 3134 3134 3134 3135 3135 3135 3135 3135 3135 3135 3135 3135 3136 3136 3136
3125 3125 3125 3125 3126 3127 3128 3129 3130 3131 3132 3132 3132 3132 3132 3133 3133 3133 3134 3134 3134 3134 3135 3135 3135 3135 3135 3135 3136 3136 3136 3136 3136 3136 3136 3136 3136 3136 3136 3136 3136 3136
3123 3124 3124 3124 3125 3126 3127 3128 3129 3130 3131 3132 3132 3132 3133 3133 3134 3134 3134 3135 3135 3135 3135 3136 3136 3136 3136 3136 3136 3136 3137 3136 3136 3136 3136 3136 3136 3136 3136 3136 3136 3135
3121 3122 3122 3123 3124 3124 3126 3127 3128 3128 3130 3131 3131 3132 3133 3133 3134 3134 3135 3135 3135 3136 3136 3136 3136 3136 3136 3136 3137 3137 3137 3137 3136 3136 3136 3136 3136 3136 3136 3136 3135 3135
3119 3120 3120 3120 3122 3123 3124 3126 3127 3127 3128 3129 3130 3130 3131 3132 3133 3134 3134 3135 3135 3135 3135 3135 3136 3136 3136 3136 3136 3136 3136 3136 3136 3136 3136 3136 3136 3136 3135 3135 3135 3135
3116 3118 3119 3119 3120 3122 3123 3124 3125 3126 3126 3127 3128 3129 3130 3131 3132 3132 3133 3133 3134 3134 3134 3135 3135 3135 3135 3135 3135 3135 3136 3135 3135 3135 3135 3135 3135 3135 3135 3135 3134 3134
3113 3115 3117 3119 3119 3120 3121 3122 3124 3124 3124 3125 3126 3126 3127 3129 3130 3131 3131 3132 3132 3133 3133 3133 3134 3134 3134 3134 3134 3134 3134 3134 3134 3134 3134 3134 3134 3134 3134 3134 3133 3133
3112 3114 3116 3117 3118 3119 3119 3120 3121 3122 3122 3122 3123 3124 3125 3127 3128 3129 3130 3130 3131 3131 3132 3132 3132 3132 3132 3132 3132 3133 3133 3133 3133 3132 3132 3132 3132 3132 3132 3132 3132 3131
3111 3112 3114 3115 3116 3117 3117 3118 3119 3119 3120 3120 3121 3122 3124 3125 3126 3127 3128 3128 3129 3129 3130 3131 3131 3130 3130 3130 3130 3131 3131 3131 3131 3131 3130 3130 3130 3130 3130 3130 3130 3129
3109 3111 3112 3113 3114 3115 3115 3116 3117 3118 3119 3119 3120 3120 3121 3122 3124 3124 3125 3126 3126 3127 3127 3128 3128 3127 3127 3128 3128 3128 3128 3128 3129 3129 3129 3128 3128 3128 3127 3127 3127 3127
3107 3109 3110 3111 3112 3113 3113 3114 3115 3116 3117 3118 3118 3118 3119 3119 3120 3121 3122 3123 3123 3123 3123 3124 3124 3124 3124 3124 3125 3125 3125 3125 3126 3126 3127 3126 3126 3126 3125 3124 3124 3124
3104 3105 3105 3105 3107 3109 3110 3111 3112 3113 3115 3115 3116 3116 3117 3117 3118 3118 3119 3119 3119 3119 3119 3119 3120 3121 3120 3121 3122 3122 3122 3122 3122 3122 3123 3123 3123 3123 3122 3122 3121 3121
3099 3099 3100 3100 3100 3103 3106 3108 3109 3111 3111 3112 3113 3113 3114 3114 3115 3116 3116 3116 3116 3117 3116 3116 3117 3117 3116 3117 3118 3119 3119 3119 3119 3119 3119 3119 3119 3119 3119 3119 3118 3118
3094 3096 3099 3100 3100 3102 3104 3104 3106 3107 3107 3108 3109 3111 3111 3112 3112 3112 3113 3113 3113 3114 3114 3114 3113 3114 3114 3114 3115 3116 3116 3115 3115 3115 3115 3116 3116 3115 3115 3115 3115 3115
3094 3096 3097 3099 3099 3101 3102 3102 3102 3103 3104 3106 3107 3108 3109 3109 3109 3110 3110 3110 3111 3111 3111 3111 3111 3111 3112 3112 3112 3112 3112 3112 3111 3111 3111 3112 3112 3112 3112 3112 3112 3112
3094 3094 3094 3095 3096 3098 3100 3101 3101 3101 3102 3103 3104 3105 3105 3105 3106 3107 3107 3107 3108 3108 3108 3108 3108 3109 3109 3109 3109 3109 3108 3108 3108 3108 3108 3108 3108 3109 3109 3108 3108 3108
3092 3092 3091 3092 3094 3096 3097 3097 3097 3098 3098 3099 3100 3101 3101 3102 3102 3103 3104 3104 3104 3104 3105 3105 3105 3105 3105 3105 3105 3104 3104 3104 3104 3104 3104 3105 3105 3105 3104 3104 3104 3104
3089 3089 3089 3091 3092 3093 3093 3093 3094 3094 3095 3095 3096 3097 3097 3098 3098 3099 3099 3099 3099 3100 3100 3100 3100 3100 3101 3101 3101 3100 3100 3099 3099 3100 3101 3101 3101 3100 3100 3100 3100 3099
3086 3086 3087 3089 3090 3090 3090 3091 3091 3092 3092 3093 3093 3094 3094 3095 3095 3095 3095 3095 3095 3095 3095 3096 3096 3096 3097 3097 3097 3096 3096 3095 3095 3096 3096 3096 3096 3095 3095 3096 3095 3094
3084 3084 3085 3086 3087 3088 3088 3089 3089 3089 3090 3090 3091 3091 3091 3092 3092 3092 3092 3092 3092 3091 3091 3092 3092 3092 3092 3093 3093 3092 3092 3092 3092 3092 3091 3091 3091 3091 3091 3091 3091 3090
3081 3082 3083 3083 3084 3085 3085 3086 3086 3086 3087 3087 3087 3087 3088 3088 3088 3088 3088 3089 3089 3089 3089 3089 3088 3088 3088 3088 3088 3088 3088 3088 3088 3088 3088 3087 3087 3087 3087 3087 3087 3086
3077 3079 3080 3081 3081 3082 3082 3082 3083 3083 3083 3083 3083 3083 3083 3084 3084 3084 3084 3084 3085 3086 3086 3085 3084 3084 3084 3084 3084 3084 3084 3084 3084 3084 3084 3084 3083 3083 3083 3083 3082 3082
3073 3074 3076 3077 3078 3079 3079 3079 3079 3080 3080 3080 3080 3079 3079 3079 3079 3080 3080 3080 3081 3082 3082 3081 3081 3080 3081 3081 3081 3080 3080 3080 3080 3079 3079 3079 3079 3078 3078 3078 3078 3078
3069 3070 3071 3072 3073 3074 3074 3075 3075 3076 3076 3076 3076 3076 3076 3075 3075 3075 3075 3076 3077 3078 3078 3078 3077 3077 3077 3077 3077 3077 3076 3076 3076 3075 3074 3074 3074 3073 3073 3073 3072 3072
3065 3066 3066 3067 3068 3068 3069 3070 3072 3072 3073 3073 3073 3073 3072 3071 3071 3071 3071 3072 3073 3074 3074 3073 3073 3073 3073 3073 3073 3073 3073 3072 3072 3071 3070 3070 3070 3069 3068 3068 3067 3067